Location: Central Falls
(41.8900°N, 71.3929°W)
Time: 12:12:04
(UTC+00:00)

A-11 Canister half - Pass Details

Date: 10 December 2023
Orbit: 1526 x 1682 km, 47.3° (Epoch: 20 February)

Event Time Altitude Azimuth Distance (km) Brightness Sun altitude
Rises 20:08:05 0° 192° (SSW) 4,869 12.6 9.1°
Reaches altitude 10° 20:11:51 10° 181° (S) 3,902 11.9 8.6°
Maximum altitude 20:19:42 27° 128° (SE) 2,821 10.4 7.5°
Drops below altitude 10° 20:27:36 10° 77° (ENE) 3,945 10.6 6.3°
Sets 20:31:24 0° 66° (ENE) 4,932 11.0 5.8°
